Location: La Comballaz
(46.3780°N, 7.0817°E)
Time: 17:49:48
(UTC+00:00)

Envisat - Pass Details

Date: 11 December 2021
Orbit: 764 x 766 km, 98.2° (Epoch: 16 January)

Event Time Altitude Azimuth Distance (km) Brightness Sun altitude
Rises 06:10:10 0° 359° (N) 3,244 6.0 -9.1°
Reaches altitude 10° 06:13:13 10° 340° (NNW) 2,312 5.1 -8.6°
Maximum altitude 06:16:24 17° 301° (WNW) 1,867 4.4 -8.1°
Drops below altitude 10° 06:19:35 10° 262° (W) 2,302 5.0 -7.6°
Sets 06:22:37 0° 243° (WSW) 3,224 5.9 -7.2°
